sat.trackr.live / text

‹ back to catalog

STARLINK-37923

NORAD 69949 · 2026-157G

PAYLOAD ACTIVE UNKNOWN

§ Identity

Operator
Country
US
Launch date
2026-07-09
Launch site
AFETR
Launch vehicle
Mass (kg)
RCS (m²)

Purposes: comms

External: N2YO · Heavens-Above · Gunter

§ Orbital elements

Epoch: 2026-09-20T04:57:31.363200Z

Period
93.85 min
Inclination
53.1587°
Eccentricity
0.0001404
Mean motion
15.34415884 rev/d
Perigee alt
461.7 km
Apogee alt
463.6 km
Semi-major
6,840.8 km
B*
8.1216e-4
RAAN
335.4077°
Arg perigee
76.4201°
Mean anomaly
283.6958°
Rev number
1,132

§ Raw data

STARLINK-379231 69949U 26157G   26263.20661300  .00027177  00000+0  81216-3 0  99992 69949  53.1587 335.4077 0001404  76.4201 283.6958 15.34415884 11327

JSON: /api/v1/satellites/69949 · /tle

For live sub-satellite position, see the globe view (requires WebGL).

§ Visibility from observer

Set your observer location to see the next 7 days of passes ≥ 10°. The values pass through the URL so the page stays shareable.

No JS? Fill the form by hand. The geolocation button needs JavaScript.